date,time,SUV Intensity [MED/Hr],UV Index,Daily total [MED],Since Last [MED]
11/03/2022,00:05:37,0.000,0.0,0.0,0.0
11/03/2022,00:06:38,0.000,0.0,0.0,0.0
11/03/2022,00:07:37,0.000,0.0,0.0,0.0
11/03/2022,00:08:36,0.000,0.0,0.0,0.0
11/03/2022,00:09:37,0.000,0.0,0.0,0.0
11/03/2022,00:10:37,0.000,0.0,0.0,0.0
11/03/2022,00:11:36,-0.001,0.0,0.0,0.0
11/03/2022,00:12:37,0.000,0.0,0.0,0.0
11/03/2022,00:13:37,0.001,0.0,0.0,0.0
11/03/2022,00:14:37,0.000,0.0,0.0,0.0
11/03/2022,00:15:45,0.000,0.0,0.0,0.0
11/03/2022,00:16:37,0.000,0.0,0.0,0.0
11/03/2022,00:17:37,0.000,0.0,0.0,0.0
11/03/2022,00:18:36,-0.000,0.0,0.0,0.0
11/03/2022,00:19:37,-0.000,0.0,0.0,0.0
11/03/2022,00:20:37,0.000,0.0,0.0,0.0
11/03/2022,00:21:37,0.001,0.0,0.0,0.0
11/03/2022,00:22:36,0.000,0.0,0.0,0.0
11/03/2022,00:23:36,0.001,0.0,0.0,0.0
11/03/2022,00:24:37,0.000,0.0,0.0,0.0
11/03/2022,00:25:37,0.000,0.0,0.0,0.0
11/03/2022,00:26:37,0.000,0.0,0.0,0.0
11/03/2022,00:27:36,-0.000,0.0,0.0,0.0
11/03/2022,00:28:37,-0.001,0.0,0.0,0.0
11/03/2022,00:29:37,0.001,0.0,0.0,0.0
11/03/2022,00:30:37,0.000,0.0,0.0,0.0
11/03/2022,00:31:45,-0.001,0.0,0.0,0.0
11/03/2022,00:32:37,0.001,0.0,0.0,0.0
11/03/2022,00:33:36,0.000,0.0,0.0,0.0
11/03/2022,00:34:45,-0.000,0.0,0.0,0.0
11/03/2022,00:35:38,0.001,0.0,0.0,0.0
11/03/2022,00:36:36,-0.000,0.0,0.0,0.0
11/03/2022,00:37:36,0.000,0.0,0.0,0.0
11/03/2022,00:38:36,0.000,0.0,0.0,0.0
11/03/2022,00:39:36,0.000,0.0,0.0,0.0
11/03/2022,00:40:37,-0.000,0.0,0.0,0.0
11/03/2022,00:41:37,0.000,0.0,0.0,0.0
11/03/2022,00:42:36,0.001,0.0,0.0,0.0
11/03/2022,00:43:37,-0.001,0.0,0.0,0.0
11/03/2022,00:44:45,0.000,0.0,0.0,0.0
11/03/2022,00:45:37,0.000,0.0,0.0,0.0
11/03/2022,00:47:38,0.000,0.0,0.0,0.0
11/03/2022,00:48:36,0.000,0.0,0.0,0.0
11/03/2022,00:49:37,-0.000,0.0,0.0,0.0
11/03/2022,00:50:45,0.000,0.0,0.0,0.0
11/03/2022,00:51:37,0.000,0.0,0.0,0.0
11/03/2022,00:52:36,0.000,0.0,0.0,0.0
11/03/2022,00:53:37,-0.001,0.0,0.0,0.0
11/03/2022,00:54:37,0.000,0.0,0.0,0.0
11/03/2022,00:55:36,0.000,0.0,0.0,0.0
11/03/2022,00:56:37,-0.000,0.0,0.0,0.0
11/03/2022,00:57:45,0.001,0.0,0.0,0.0
11/03/2022,00:58:37,0.001,0.0,0.0,0.0
11/03/2022,00:59:36,0.001,0.0,0.0,0.0
11/03/2022,01:00:36,0.001,0.0,0.0,0.0
11/03/2022,01:01:45,0.001,0.0,0.0,0.0
11/03/2022,01:02:37,0.000,0.0,0.0,0.0
11/03/2022,01:03:37,0.000,0.0,0.0,0.0
11/03/2022,01:04:37,0.000,0.0,0.0,0.0
11/03/2022,01:05:36,-0.000,0.0,0.0,0.0
11/03/2022,01:06:36,0.001,0.0,0.0,0.0
11/03/2022,01:07:36,0.000,0.0,0.0,0.0
11/03/2022,01:08:36,0.001,0.0,0.0,0.0
11/03/2022,01:09:37,0.000,0.0,0.0,0.0
11/03/2022,01:10:37,0.001,0.0,0.0,0.0
11/03/2022,01:11:45,0.001,0.0,0.0,0.0
11/03/2022,01:12:36,0.001,0.0,0.0,0.0
11/03/2022,01:13:37,-0.000,0.0,0.0,0.0
11/03/2022,01:14:45,0.000,0.0,0.0,0.0
11/03/2022,01:15:37,0.000,0.0,0.0,0.0
11/03/2022,01:16:37,0.000,0.0,0.0,0.0
11/03/2022,01:17:37,-0.000,0.0,0.0,0.0
11/03/2022,01:18:37,0.000,0.0,0.0,0.0
11/03/2022,01:19:36,0.000,0.0,0.0,0.0
11/03/2022,01:20:36,0.000,0.0,0.0,0.0
11/03/2022,01:21:37,0.001,0.0,0.0,0.0
11/03/2022,01:22:37,0.000,0.0,0.0,0.0
11/03/2022,01:23:36,0.001,0.0,0.0,0.0
11/03/2022,01:24:46,-0.000,0.0,0.0,0.0
11/03/2022,01:25:35,-0.000,0.0,0.0,0.0
11/03/2022,01:26:37,0.000,0.0,0.0,0.0
11/03/2022,01:27:45,0.000,0.0,0.0,0.0
11/03/2022,01:28:37,-0.000,0.0,0.0,0.0
11/03/2022,01:29:37,0.001,0.0,0.0,0.0
11/03/2022,01:30:37,0.000,0.0,0.0,0.0
11/03/2022,01:31:37,0.000,0.0,0.0,0.0
11/03/2022,01:32:37,0.000,0.0,0.0,0.0
11/03/2022,01:33:37,0.000,0.0,0.0,0.0
11/03/2022,01:34:37,0.000,0.0,0.0,0.0
11/03/2022,01:35:36,0.000,0.0,0.0,0.0
11/03/2022,01:36:36,0.001,0.0,0.0,0.0
11/03/2022,01:37:37,0.001,0.0,0.0,0.0
11/03/2022,01:38:37,0.001,0.0,0.0,0.0
11/03/2022,01:39:37,0.000,0.0,0.0,0.0
11/03/2022,01:40:36,0.000,0.0,0.0,0.0
11/03/2022,01:41:37,-0.000,0.0,0.0,0.0
11/03/2022,01:42:37,0.000,0.0,0.0,0.0
11/03/2022,01:43:36,0.000,0.0,0.0,0.0
11/03/2022,01:44:37,0.000,0.0,0.0,0.0
11/03/2022,01:45:37,0.001,0.0,0.0,0.0
11/03/2022,01:46:37,0.000,0.0,0.0,0.0
11/03/2022,01:47:37,0.000,0.0,0.0,0.0
11/03/2022,01:48:50,0.000,0.0,0.0,0.0
11/03/2022,01:50:37,0.000,0.0,0.0,0.0
11/03/2022,01:51:45,0.001,0.0,0.0,0.0
11/03/2022,01:52:38,0.000,0.0,0.0,0.0
11/03/2022,01:53:37,-0.001,0.0,0.0,0.0
11/03/2022,01:54:37,0.000,0.0,0.0,0.0
11/03/2022,01:55:37,0.001,0.0,0.0,0.0
11/03/2022,01:56:37,0.000,0.0,0.0,0.0
11/03/2022,01:57:37,0.001,0.0,0.0,0.0
11/03/2022,01:58:37,-0.000,0.0,0.0,0.0
11/03/2022,01:59:36,0.000,0.0,0.0,0.0
11/03/2022,02:00:37,-0.001,0.0,0.0,0.0
11/03/2022,02:01:45,-0.000,0.0,0.0,0.0
11/03/2022,02:02:37,0.000,0.0,0.0,0.0
11/03/2022,02:03:37,0.000,0.0,0.0,0.0
11/03/2022,02:04:37,0.000,0.0,0.0,0.0
11/03/2022,02:05:37,-0.001,0.0,0.0,0.0
11/03/2022,02:06:36,-0.001,0.0,0.0,0.0
11/03/2022,02:07:45,0.000,0.0,0.0,0.0
11/03/2022,02:08:37,0.000,0.0,0.0,0.0
11/03/2022,02:09:37,0.001,0.0,0.0,0.0
11/03/2022,02:10:37,0.000,0.0,0.0,0.0
11/03/2022,02:11:36,0.001,0.0,0.0,0.0
11/03/2022,02:12:37,-0.001,0.0,0.0,0.0
11/03/2022,02:13:37,0.000,0.0,0.0,0.0
11/03/2022,02:14:37,0.000,0.0,0.0,0.0
11/03/2022,02:15:37,0.000,0.0,0.0,0.0
11/03/2022,02:16:37,0.000,0.0,0.0,0.0
11/03/2022,02:17:45,0.001,0.0,0.0,0.0
11/03/2022,02:18:36,0.000,0.0,0.0,0.0
11/03/2022,02:19:37,-0.000,0.0,0.0,0.0
11/03/2022,02:20:45,0.000,0.0,0.0,0.0
11/03/2022,02:21:38,0.001,0.0,0.0,0.0
11/03/2022,02:22:37,-0.000,0.0,0.0,0.0
11/03/2022,02:23:36,0.000,0.0,0.0,0.0
11/03/2022,02:25:37,-0.001,0.0,0.0,0.0
11/03/2022,02:26:37,0.000,0.0,0.0,0.0
11/03/2022,02:27:37,0.001,0.0,0.0,0.0
11/03/2022,02:28:37,0.001,0.0,0.0,0.0
11/03/2022,02:29:36,0.000,0.0,0.0,0.0
11/03/2022,02:30:45,0.001,0.0,0.0,0.0
11/03/2022,02:31:37,0.001,0.0,0.0,0.0
11/03/2022,02:32:37,0.000,0.0,0.0,0.0
11/03/2022,02:33:37,0.000,0.0,0.0,0.0
11/03/2022,02:34:37,-0.001,0.0,0.0,0.0
11/03/2022,02:35:37,0.001,0.0,0.0,0.0
11/03/2022,02:36:37,0.000,0.0,0.0,0.0
11/03/2022,02:37:37,0.000,0.0,0.0,0.0
11/03/2022,02:38:36,0.000,0.0,0.0,0.0
11/03/2022,02:39:37,0.002,0.0,0.0,0.0
11/03/2022,02:40:37,0.001,0.0,0.0,0.0
11/03/2022,02:41:36,0.001,0.0,0.0,0.0
11/03/2022,02:42:37,0.000,0.0,0.0,0.0
11/03/2022,02:43:37,0.000,0.0,0.0,0.0
11/03/2022,02:44:45,0.000,0.0,0.0,0.0
11/03/2022,02:45:37,0.000,0.0,0.0,0.0
11/03/2022,02:46:37,0.001,0.0,0.0,0.0
11/03/2022,02:47:37,0.001,0.0,0.0,0.0
11/03/2022,02:48:36,0.000,0.0,0.0,0.0
11/03/2022,02:49:38,0.000,0.0,0.0,0.0
11/03/2022,02:50:37,0.000,0.0,0.0,0.0
11/03/2022,02:51:37,0.000,0.0,0.0,0.0
11/03/2022,02:52:37,0.000,0.0,0.0,0.0
11/03/2022,02:53:37,-0.000,0.0,0.0,0.0
11/03/2022,02:54:37,0.000,0.0,0.0,0.0
11/03/2022,02:55:37,0.001,0.0,0.0,0.0
11/03/2022,02:56:36,-0.000,0.0,0.0,0.0
11/03/2022,02:57:45,0.000,0.0,0.0,0.0
11/03/2022,02:58:37,0.000,0.0,0.0,0.0
11/03/2022,02:59:37,0.001,0.0,0.0,0.0
11/03/2022,03:00:46,0.000,0.0,0.0,0.0
11/03/2022,03:01:37,0.000,0.0,0.0,0.0
11/03/2022,03:02:37,0.000,0.0,0.0,0.0
11/03/2022,03:03:37,0.000,0.0,0.0,0.0
11/03/2022,03:04:36,0.000,0.0,0.0,0.0
11/03/2022,03:05:37,0.000,0.0,0.0,0.0
11/03/2022,03:06:37,0.000,0.0,0.0,0.0
11/03/2022,03:07:37,-0.000,0.0,0.0,0.0
11/03/2022,03:08:37,-0.001,0.0,0.0,0.0
11/03/2022,03:10:29,0.000,0.0,0.0,0.0
11/03/2022,03:11:45,0.000,0.0,0.0,0.0
11/03/2022,03:12:37,0.000,0.0,0.0,0.0
11/03/2022,03:13:37,0.001,0.0,0.0,0.0
11/03/2022,03:14:45,0.001,0.0,0.0,0.0
11/03/2022,03:15:36,0.000,0.0,0.0,0.0
11/03/2022,03:16:37,0.000,0.0,0.0,0.0
11/03/2022,03:17:45,0.000,0.0,0.0,0.0
11/03/2022,03:18:37,0.000,0.0,0.0,0.0
11/03/2022,03:19:37,0.000,0.0,0.0,0.0
11/03/2022,03:20:37,0.000,0.0,0.0,0.0
11/03/2022,03:21:37,0.000,0.0,0.0,0.0
11/03/2022,03:22:37,0.000,0.0,0.0,0.0
11/03/2022,03:23:37,0.000,0.0,0.0,0.0
11/03/2022,03:24:37,0.000,0.0,0.0,0.0
11/03/2022,03:25:37,-0.000,0.0,0.0,0.0
11/03/2022,03:26:36,0.000,0.0,0.0,0.0
11/03/2022,03:27:45,0.000,0.0,0.0,0.0
11/03/2022,03:28:37,-0.000,0.0,0.0,0.0
11/03/2022,03:29:37,-0.000,0.0,0.0,0.0
11/03/2022,03:30:37,-0.000,0.0,0.0,0.0
11/03/2022,03:31:37,0.001,0.0,0.0,0.0
11/03/2022,03:32:37,-0.000,0.0,0.0,0.0
11/03/2022,03:33:37,0.001,0.0,0.0,0.0
11/03/2022,03:34:37,0.000,0.0,0.0,0.0
11/03/2022,03:35:37,0.000,0.0,0.0,0.0
11/03/2022,03:36:37,0.000,0.0,0.0,0.0
11/03/2022,03:37:37,0.001,0.0,0.0,0.0
11/03/2022,03:38:37,0.000,0.0,0.0,0.0
11/03/2022,03:39:37,0.000,0.0,0.0,0.0
11/03/2022,03:40:37,-0.000,0.0,0.0,0.0
11/03/2022,03:41:37,0.000,0.0,0.0,0.0
11/03/2022,03:42:37,0.000,0.0,0.0,0.0
11/03/2022,03:43:37,0.000,0.0,0.0,0.0
11/03/2022,03:44:38,-0.001,0.0,0.0,0.0
11/03/2022,03:45:37,0.001,0.0,0.0,0.0
11/03/2022,03:46:37,0.001,0.0,0.0,0.0
11/03/2022,03:47:45,0.001,0.0,0.0,0.0
11/03/2022,03:48:37,0.001,0.0,0.0,0.0
11/03/2022,03:49:36,0.001,0.0,0.0,0.0
11/03/2022,03:50:37,0.001,0.0,0.0,0.0
11/03/2022,03:51:37,0.001,0.0,0.0,0.0
11/03/2022,03:52:37,0.001,0.0,0.0,0.0
11/03/2022,03:53:37,0.001,0.0,0.0,0.0
11/03/2022,03:54:37,0.000,0.0,0.0,0.0
11/03/2022,03:55:37,0.001,0.0,0.0,0.0
11/03/2022,03:56:37,0.001,0.0,0.0,0.0
11/03/2022,03:57:37,-0.000,0.0,0.0,0.0
11/03/2022,03:58:37,0.001,0.0,0.0,0.0
11/03/2022,03:59:37,0.001,0.0,0.0,0.0
11/03/2022,04:00:37,0.001,0.0,0.0,0.0
11/03/2022,04:01:37,0.001,0.0,0.0,0.0
11/03/2022,04:02:37,0.001,0.0,0.0,0.0
11/03/2022,04:03:37,0.001,0.0,0.0,0.0
11/03/2022,04:04:37,0.001,0.0,0.0,0.0
11/03/2022,04:05:37,0.001,0.0,0.0,0.0
11/03/2022,04:06:37,0.000,0.0,0.0,0.0
11/03/2022,04:07:36,0.001,0.0,0.0,0.0
11/03/2022,04:09:46,0.002,0.0,0.0,0.0
11/03/2022,04:10:36,0.000,0.0,0.0,0.0
11/03/2022,04:11:37,0.001,0.0,0.0,0.0
11/03/2022,04:12:37,0.001,0.0,0.0,0.0
11/03/2022,04:13:37,-0.000,0.0,0.0,0.0
11/03/2022,04:14:37,0.001,0.0,0.0,0.0
11/03/2022,04:15:37,0.001,0.0,0.0,0.0
11/03/2022,04:16:37,0.001,0.0,0.0,0.0
11/03/2022,04:17:37,0.000,0.0,0.0,0.0
11/03/2022,04:18:46,0.001,0.0,0.0,0.0
11/03/2022,04:19:37,0.001,0.0,0.0,0.0
11/03/2022,04:20:37,0.001,0.0,0.0,0.0
11/03/2022,04:21:45,-0.000,0.0,0.0,0.0
11/03/2022,04:22:37,0.002,0.0,0.0,0.0
11/03/2022,04:23:37,0.001,0.0,0.0,0.0
11/03/2022,04:24:45,0.001,0.0,0.0,0.0
11/03/2022,04:25:37,-0.000,0.0,0.0,0.0
11/03/2022,04:26:37,0.001,0.0,0.0,0.0
11/03/2022,04:27:37,0.001,0.0,0.0,0.0
11/03/2022,04:28:37,0.001,0.0,0.0,0.0
11/03/2022,04:29:37,0.001,0.0,0.0,0.0
11/03/2022,04:30:37,0.001,0.0,0.0,0.0
11/03/2022,04:31:37,0.002,0.0,0.0,0.0
11/03/2022,04:32:37,0.001,0.0,0.0,0.0
11/03/2022,04:33:37,0.000,0.0,0.0,0.0
11/03/2022,04:34:46,0.000,0.0,0.0,0.0
11/03/2022,04:35:37,0.001,0.0,0.0,0.0
11/03/2022,04:36:37,0.001,0.0,0.0,0.0
11/03/2022,04:37:37,0.001,0.0,0.0,0.0
11/03/2022,04:38:37,0.001,0.0,0.0,0.0
11/03/2022,04:39:37,-0.000,0.0,0.0,0.0
11/03/2022,04:40:37,0.002,0.0,0.0,0.0
11/03/2022,04:41:37,0.001,0.0,0.0,0.0
11/03/2022,04:42:37,0.001,0.0,0.0,0.0
11/03/2022,04:43:37,0.000,0.0,0.0,0.0
11/03/2022,04:44:37,0.001,0.0,0.0,0.0
11/03/2022,04:45:46,0.000,0.0,0.0,0.0
11/03/2022,04:46:36,0.000,0.0,0.0,0.0
11/03/2022,04:47:37,0.001,0.0,0.0,0.0
11/03/2022,04:48:37,0.001,0.0,0.0,0.0
11/03/2022,04:49:37,0.001,0.0,0.0,0.0
11/03/2022,04:50:37,0.001,0.0,0.0,0.0
11/03/2022,04:51:37,0.000,0.0,0.0,0.0
11/03/2022,04:52:37,0.001,0.0,0.0,0.0
11/03/2022,04:53:37,0.000,0.0,0.0,0.0
11/03/2022,04:54:37,0.001,0.0,0.0,0.0
11/03/2022,04:55:37,0.001,0.0,0.0,0.0
11/03/2022,04:56:37,0.001,0.0,0.0,0.0
11/03/2022,04:57:37,-0.000,0.0,0.0,0.0
11/03/2022,04:58:45,0.001,0.0,0.0,0.0
11/03/2022,04:59:37,0.001,0.0,0.0,0.0
11/03/2022,05:00:37,0.001,0.0,0.0,0.0
11/03/2022,05:01:37,0.001,0.0,0.0,0.0
11/03/2022,05:02:37,0.001,0.0,0.0,0.0
11/03/2022,05:03:37,-0.000,0.0,0.0,0.0
11/03/2022,05:04:38,0.001,0.0,0.0,0.0
11/03/2022,05:05:37,0.001,0.0,0.0,0.0
11/03/2022,05:06:39,0.001,0.0,0.0,0.0
11/03/2022,05:07:37,0.001,0.0,0.0,0.0
11/03/2022,05:08:37,0.001,0.0,0.0,0.0
11/03/2022,05:09:45,-0.000,0.0,0.0,0.0
11/03/2022,05:10:37,0.001,0.0,0.0,0.0
11/03/2022,05:11:46,0.001,0.0,0.0,0.0
11/03/2022,05:12:37,0.001,0.0,0.0,0.0
11/03/2022,05:13:37,0.001,0.0,0.0,0.0
11/03/2022,05:14:38,0.001,0.0,0.0,0.0
11/03/2022,05:15:37,0.001,0.0,0.0,0.0
11/03/2022,05:16:37,0.002,0.0,0.0,0.0
11/03/2022,05:17:37,0.001,0.0,0.0,0.0
11/03/2022,05:18:37,0.001,0.0,0.0,0.0
11/03/2022,05:19:37,0.002,0.0,0.0,0.0
11/03/2022,05:20:37,0.000,0.0,0.0,0.0
11/03/2022,05:21:37,0.000,0.0,0.0,0.0
11/03/2022,05:22:45,0.001,0.0,0.0,0.0
11/03/2022,05:23:37,0.001,0.0,0.0,0.0
11/03/2022,05:24:37,0.000,0.0,0.0,0.0
11/03/2022,05:25:37,0.001,0.0,0.0,0.0
11/03/2022,05:26:38,0.002,0.0,0.0,0.0
11/03/2022,05:27:38,0.001,0.0,0.0,0.0
11/03/2022,05:28:46,0.000,0.0,0.0,0.0
11/03/2022,05:29:36,0.001,0.0,0.0,0.0
11/03/2022,05:30:38,0.000,0.0,0.0,0.0
11/03/2022,05:31:37,0.002,0.0,0.0,0.0
11/03/2022,05:32:37,0.001,0.0,0.0,0.0
11/03/2022,05:33:38,0.002,0.0,0.0,0.0
11/03/2022,05:34:37,0.001,0.0,0.0,0.0
11/03/2022,05:35:37,0.001,0.0,0.0,0.0
11/03/2022,05:36:46,0.000,0.0,0.0,0.0
11/03/2022,05:37:37,0.001,0.0,0.0,0.0
11/03/2022,05:38:45,0.001,0.0,0.0,0.0
11/03/2022,05:39:45,0.001,0.0,0.0,0.0
11/03/2022,05:40:39,0.001,0.0,0.0,0.0
11/03/2022,05:41:38,0.000,0.0,0.0,0.0
11/03/2022,05:42:37,0.001,0.0,0.0,0.0
11/03/2022,05:43:37,0.001,0.0,0.0,0.0
11/03/2022,05:44:37,0.001,0.0,0.0,0.0
11/03/2022,05:45:37,0.000,0.0,0.0,0.0
11/03/2022,05:46:37,0.002,0.0,0.0,0.0
11/03/2022,05:47:37,0.001,0.0,0.0,0.0
11/03/2022,05:48:37,0.001,0.0,0.0,0.0
11/03/2022,05:49:46,0.001,0.0,0.0,0.0
11/03/2022,05:50:37,0.001,0.0,0.0,0.0
11/03/2022,05:51:37,0.001,0.0,0.0,0.0
11/03/2022,05:52:37,0.001,0.0,0.0,0.0
11/03/2022,05:53:37,0.001,0.0,0.0,0.0
11/03/2022,05:54:37,0.001,0.0,0.0,0.0
11/03/2022,05:55:37,0.001,0.0,0.0,0.0
11/03/2022,05:56:37,0.000,0.0,0.0,0.0
11/03/2022,05:57:37,0.001,0.0,0.0,0.0
11/03/2022,05:58:37,0.001,0.0,0.0,0.0
11/03/2022,05:59:46,0.001,0.0,0.0,0.0
11/03/2022,06:00:37,0.001,0.0,0.0,0.0
11/03/2022,06:01:39,0.000,0.0,0.0,0.0
11/03/2022,06:02:39,0.001,0.0,0.0,0.0
11/03/2022,06:03:37,0.001,0.0,0.0,0.0
11/03/2022,06:04:37,0.001,0.0,0.0,0.0
11/03/2022,06:05:37,0.001,0.0,0.0,0.0
11/03/2022,06:06:37,0.001,0.0,0.0,0.0
11/03/2022,06:07:37,0.000,0.0,0.0,0.0
11/03/2022,06:08:37,0.001,0.0,0.0,0.0
11/03/2022,06:09:38,0.001,0.0,0.0,0.0
11/03/2022,06:10:37,0.001,0.0,0.0,0.0
11/03/2022,06:11:37,0.001,0.0,0.0,0.0
11/03/2022,06:12:37,0.001,0.0,0.0,0.0
11/03/2022,06:13:37,0.001,0.0,0.0,0.0
11/03/2022,06:14:37,0.001,0.0,0.0,0.0
11/03/2022,06:15:37,0.001,0.0,0.0,0.0
11/03/2022,06:17:46,0.001,0.0,0.0,0.0
11/03/2022,06:18:36,0.002,0.0,0.0,0.0
11/03/2022,06:19:28,0.001,0.0,0.0,0.0
11/03/2022,06:20:38,0.001,0.0,0.0,0.0
11/03/2022,06:21:37,0.001,0.0,0.0,0.0
11/03/2022,06:22:37,0.001,0.0,0.0,0.0
11/03/2022,06:23:38,0.002,0.0,0.0,0.0
11/03/2022,06:24:37,0.002,0.0,0.0,0.0
11/03/2022,06:25:37,0.002,0.0,0.0,0.0
11/03/2022,06:26:37,0.002,0.0,0.0,0.0
11/03/2022,06:27:37,0.002,0.0,0.0,0.0
11/03/2022,06:28:37,0.002,0.0,0.0,0.0
11/03/2022,06:29:37,0.002,0.0,0.0,0.0
11/03/2022,06:30:45,0.002,0.0,0.0,0.0
11/03/2022,06:31:37,0.003,0.0,0.0,0.0
11/03/2022,06:32:38,0.003,0.0,0.0,0.0
11/03/2022,06:33:46,0.003,0.0,0.0,0.0
11/03/2022,06:34:36,0.003,0.0,0.0,0.0
11/03/2022,06:35:38,0.002,0.0,0.0,0.0
11/03/2022,06:36:46,0.003,0.0,0.0,0.0
11/03/2022,06:37:38,0.003,0.0,0.0,0.0
11/03/2022,06:38:37,0.004,0.0,0.0,0.0
11/03/2022,06:39:37,0.004,0.0,0.0,0.0
11/03/2022,06:40:38,0.003,0.0,0.0,0.0
11/03/2022,06:41:37,0.003,0.0,0.0,0.0
11/03/2022,06:42:37,0.004,0.0,0.0,0.0
11/03/2022,06:43:37,0.004,0.0,0.0,0.0
11/03/2022,06:44:45,0.005,0.0,0.0,0.0
11/03/2022,06:45:37,0.006,0.0,0.0,0.0
11/03/2022,06:46:38,0.005,0.0,0.0,0.0
11/03/2022,06:47:37,0.005,0.0,0.0,0.0
11/03/2022,06:48:37,0.005,0.0,0.0,0.0
11/03/2022,06:49:37,0.006,0.0,0.0,0.0
11/03/2022,06:50:37,0.006,0.0,0.0,0.0
11/03/2022,06:51:38,0.006,0.0,0.0,0.0
11/03/2022,06:52:37,0.006,0.0,0.0,0.0
11/03/2022,06:53:45,0.007,0.0,0.0,0.0
11/03/2022,06:54:45,0.007,0.0,0.0,0.0
11/03/2022,06:55:37,0.007,0.0,0.0,0.0
11/03/2022,06:56:37,0.007,0.0,0.001,0.001
11/03/2022,06:57:38,0.007,0.0,0.001,0.0
11/03/2022,06:58:39,0.007,0.0,0.001,0.0
11/03/2022,06:59:38,0.008,0.0,0.001,0.0
11/03/2022,07:00:37,0.008,0.0,0.001,0.0
11/03/2022,07:01:37,0.008,0.0,0.001,0.0
11/03/2022,07:02:37,0.008,0.0,0.001,0.0
11/03/2022,07:03:38,0.009,0.0,0.002,0.001
11/03/2022,07:04:46,0.010,0.0,0.002,0.0
11/03/2022,07:05:37,0.010,0.0,0.002,0.0
11/03/2022,07:06:37,0.010,0.0,0.002,0.0
11/03/2022,07:07:45,0.011,0.0,0.002,0.0
11/03/2022,07:08:37,0.012,0.0,0.002,0.0
11/03/2022,07:09:37,0.011,0.0,0.003,0.001
11/03/2022,07:10:37,0.012,0.0,0.003,0.0
11/03/2022,07:11:37,0.011,0.0,0.003,0.0
11/03/2022,07:12:37,0.012,0.0,0.003,0.0
11/03/2022,07:13:37,0.012,0.0,0.003,0.0
11/03/2022,07:14:40,0.014,0.0,0.004,0.001
11/03/2022,07:15:38,0.013,0.0,0.004,0.0
11/03/2022,07:16:37,0.013,0.0,0.004,0.0
11/03/2022,07:17:37,0.014,0.0,0.004,0.0
11/03/2022,07:18:37,0.014,0.0,0.004,0.0
11/03/2022,07:19:37,0.015,0.0,0.005,0.001
11/03/2022,07:20:38,0.015,0.0,0.005,0.0
11/03/2022,07:21:46,0.016,0.0,0.005,0.0
11/03/2022,07:22:38,0.016,0.0,0.005,0.0
11/03/2022,07:23:37,0.017,0.0,0.006,0.001
11/03/2022,07:24:37,0.018,0.0,0.006,0.0
11/03/2022,07:25:37,0.018,0.0,0.006,0.0
11/03/2022,07:26:38,0.019,0.0,0.007,0.001
11/03/2022,07:27:38,0.019,0.0,0.007,0.0
11/03/2022,07:28:37,0.021,0.0,0.007,0.0
11/03/2022,07:29:37,0.020,0.0,0.008,0.001
11/03/2022,07:30:37,0.022,0.0,0.008,0.0
11/03/2022,07:31:46,0.022,0.0,0.008,0.0
11/03/2022,07:32:36,0.023,0.0,0.009,0.001
11/03/2022,07:33:38,0.023,0.0,0.009,0.0
11/03/2022,07:34:37,0.022,0.0,0.009,0.0
11/03/2022,07:35:37,0.021,0.0,0.01,0.001
11/03/2022,07:36:37,0.024,0.0,0.01,0.0
11/03/2022,07:37:37,0.025,0.0,0.011,0.001
11/03/2022,07:38:45,0.027,0.0,0.011,0.0
11/03/2022,07:39:39,0.029,0.0,0.011,0.0
11/03/2022,07:40:37,0.030,0.0,0.012,0.001
11/03/2022,07:41:37,0.030,0.0,0.012,0.0
11/03/2022,07:42:37,0.029,0.0,0.013,0.001
11/03/2022,07:43:37,0.027,0.0,0.013,0.0
11/03/2022,07:44:37,0.024,0.0,0.014,0.001
11/03/2022,07:45:37,0.024,0.0,0.014,0.0
11/03/2022,07:46:37,0.023,0.0,0.015,0.001
11/03/2022,07:47:37,0.025,0.0,0.015,0.0
11/03/2022,07:48:37,0.028,0.0,0.015,0.0
11/03/2022,07:49:38,0.030,0.0,0.016,0.001
11/03/2022,07:50:38,0.034,0.0,0.017,0.001
11/03/2022,07:51:38,0.038,0.0,0.017,0.0
11/03/2022,07:52:46,0.038,0.0,0.018,0.001
11/03/2022,07:53:38,0.037,0.0,0.018,0.0
11/03/2022,07:54:38,0.037,0.0,0.019,0.001
11/03/2022,07:55:37,0.037,0.0,0.02,0.001
11/03/2022,07:56:37,0.039,0.0,0.02,0.0
11/03/2022,07:57:37,0.040,0.0,0.021,0.001
11/03/2022,07:58:37,0.041,0.0,0.022,0.001
11/03/2022,07:59:38,0.041,0.0,0.022,0.0
11/03/2022,08:00:37,0.040,0.0,0.023,0.001
11/03/2022,08:01:37,0.040,0.0,0.024,0.001
11/03/2022,08:02:37,0.042,0.0,0.024,0.0
11/03/2022,08:03:37,0.044,0.0,0.025,0.001
11/03/2022,08:04:38,0.044,0.0,0.026,0.001
11/03/2022,08:05:54,0.044,0.0,0.027,0.001
11/03/2022,08:07:37,0.046,0.0,0.028,0.001
11/03/2022,08:08:37,0.048,0.0,0.029,0.001
11/03/2022,08:09:37,0.050,0.0,0.029,0.0
11/03/2022,08:10:38,0.052,0.0,0.03,0.001
11/03/2022,08:11:37,0.053,0.0,0.031,0.001
11/03/2022,08:12:38,0.053,0.0,0.032,0.001
11/03/2022,08:13:37,0.053,0.0,0.033,0.001
11/03/2022,08:14:38,0.052,0.0,0.034,0.001
11/03/2022,08:15:38,0.049,0.0,0.035,0.001
11/03/2022,08:16:38,0.052,0.0,0.036,0.001
11/03/2022,08:17:37,0.056,0.0,0.036,0.0
11/03/2022,08:18:37,0.061,0.0,0.037,0.001
11/03/2022,08:19:46,0.064,0.0,0.039,0.002
11/03/2022,08:20:38,0.067,0.0,0.04,0.001
11/03/2022,08:21:38,0.071,0.0,0.041,0.001
11/03/2022,08:22:38,0.071,0.0,0.042,0.001
11/03/2022,08:23:37,0.073,0.0,0.043,0.001
11/03/2022,08:24:37,0.077,0.0,0.044,0.001
11/03/2022,08:25:38,0.079,0.0,0.046,0.002
11/03/2022,08:26:38,0.080,0.0,0.047,0.001
11/03/2022,08:27:37,0.083,0.0,0.048,0.001
11/03/2022,08:28:37,0.084,0.0,0.05,0.002
11/03/2022,08:29:46,0.085,0.0,0.051,0.001
11/03/2022,08:30:38,0.085,0.0,0.053,0.002
11/03/2022,08:31:38,0.088,0.0,0.054,0.001
11/03/2022,08:32:37,0.089,0.0,0.055,0.001
11/03/2022,08:33:38,0.088,0.0,0.057,0.002
11/03/2022,08:34:38,0.086,0.0,0.058,0.001
11/03/2022,08:35:37,0.086,0.0,0.06,0.002
11/03/2022,08:36:38,0.084,0.0,0.061,0.001
11/03/2022,08:37:37,0.081,0.0,0.063,0.002
11/03/2022,08:38:37,0.078,0.0,0.064,0.001
11/03/2022,08:39:37,0.077,0.0,0.065,0.001
11/03/2022,08:40:45,0.073,0.0,0.067,0.002
11/03/2022,08:41:37,0.071,0.0,0.068,0.001
11/03/2022,08:42:38,0.069,0.0,0.069,0.001
11/03/2022,08:43:38,0.067,0.0,0.07,0.001
11/03/2022,08:44:38,0.067,0.0,0.071,0.001
11/03/2022,08:45:38,0.064,0.0,0.072,0.001
11/03/2022,08:46:38,0.065,0.0,0.073,0.001
11/03/2022,08:47:38,0.065,0.0,0.074,0.001
11/03/2022,08:48:37,0.065,0.0,0.075,0.001
11/03/2022,08:49:37,0.065,0.0,0.076,0.001
11/03/2022,08:50:45,0.064,0.0,0.078,0.002
11/03/2022,08:51:37,0.064,0.0,0.079,0.001
11/03/2022,08:52:37,0.064,0.0,0.08,0.001
11/03/2022,08:53:46,0.065,0.0,0.081,0.001
11/03/2022,08:54:38,0.067,0.0,0.082,0.001
11/03/2022,08:55:24,0.066,0.0,0.083,0.001
11/03/2022,08:56:39,0.067,0.0,0.084,0.001
11/03/2022,08:57:37,0.070,0.0,0.085,0.001
11/03/2022,08:58:38,0.070,0.0,0.086,0.001
11/03/2022,08:59:38,0.070,0.0,0.088,0.002
11/03/2022,09:00:37,0.072,0.0,0.089,0.001
11/03/2022,09:01:37,0.073,0.0,0.09,0.001
11/03/2022,09:02:37,0.072,0.0,0.091,0.001
11/03/2022,09:03:38,0.073,0.0,0.092,0.001
11/03/2022,09:04:41,0.072,0.0,0.094,0.002
11/03/2022,09:05:37,0.075,0.0,0.095,0.001
11/03/2022,09:06:54,0.081,0.0,0.097,0.002
11/03/2022,09:08:38,0.077,0.0,0.099,0.002
11/03/2022,09:09:38,0.076,0.0,0.1,0.001
11/03/2022,09:10:38,0.077,0.0,0.101,0.001
11/03/2022,09:11:37,0.082,0.0,0.103,0.002
11/03/2022,09:12:39,0.086,0.0,0.104,0.001
11/03/2022,09:14:39,0.086,0.0,0.107,0.003
11/03/2022,09:15:37,0.089,0.0,0.109,0.002
11/03/2022,09:16:38,0.092,0.0,0.11,0.001
11/03/2022,09:17:38,0.094,0.0,0.112,0.002
11/03/2022,09:18:37,0.096,0.0,0.113,0.001
11/03/2022,09:19:38,0.095,0.0,0.115,0.002
11/03/2022,09:20:46,0.097,0.0,0.117,0.002
11/03/2022,09:21:38,0.095,0.0,0.118,0.001
11/03/2022,09:22:38,0.095,0.0,0.12,0.002
11/03/2022,09:23:37,0.095,0.0,0.121,0.001
11/03/2022,09:24:38,0.097,0.0,0.123,0.002
11/03/2022,09:25:38,0.099,0.0,0.124,0.001
11/03/2022,09:26:38,0.101,0.0,0.126,0.002
11/03/2022,09:27:46,0.103,0.0,0.128,0.002
11/03/2022,09:28:46,0.104,0.0,0.13,0.002
11/03/2022,09:29:37,0.105,0.0,0.131,0.001
11/03/2022,09:30:37,0.107,0.0,0.133,0.002
11/03/2022,09:31:37,0.109,0.0,0.135,0.002
11/03/2022,09:32:38,0.110,0.0,0.137,0.002
11/03/2022,09:33:38,0.109,0.0,0.138,0.001
11/03/2022,09:34:37,0.108,0.0,0.14,0.002
11/03/2022,09:35:39,0.106,0.0,0.142,0.002
11/03/2022,09:36:38,0.105,0.0,0.144,0.002
11/03/2022,09:37:37,0.103,0.0,0.146,0.002
11/03/2022,09:38:37,0.103,0.0,0.147,0.001
11/03/2022,09:39:37,0.104,0.0,0.149,0.002
11/03/2022,09:40:38,0.106,0.0,0.151,0.002
11/03/2022,09:41:38,0.111,0.0,0.153,0.002
11/03/2022,09:42:37,0.113,0.0,0.154,0.001
11/03/2022,09:43:38,0.119,0.0,0.156,0.002
11/03/2022,09:44:37,0.121,0.0,0.158,0.002
11/03/2022,09:45:37,0.123,0.0,0.16,0.002
11/03/2022,09:46:38,0.124,0.0,0.162,0.002
11/03/2022,09:47:37,0.128,0.0,0.164,0.002
11/03/2022,09:49:47,0.151,0.0,0.169,0.005
11/03/2022,09:50:36,0.158,0.0,0.172,0.003
11/03/2022,09:51:37,0.159,0.0,0.174,0.002
11/03/2022,09:52:37,0.156,0.0,0.177,0.003
11/03/2022,09:53:38,0.153,0.0,0.18,0.003
11/03/2022,09:54:37,0.153,0.0,0.182,0.002
11/03/2022,09:55:38,0.153,0.0,0.185,0.003
11/03/2022,09:56:38,0.152,0.0,0.187,0.002
11/03/2022,09:57:38,0.157,0.0,0.19,0.003
11/03/2022,09:58:38,0.162,0.0,0.192,0.002
11/03/2022,09:59:38,0.169,0.0,0.195,0.003
11/03/2022,10:00:37,0.165,0.0,0.198,0.003
11/03/2022,10:01:46,0.159,0.0,0.201,0.003
11/03/2022,10:02:38,0.157,0.0,0.203,0.002
11/03/2022,10:03:38,0.155,0.0,0.206,0.003
11/03/2022,10:04:37,0.157,0.0,0.208,0.002
11/03/2022,10:05:45,0.159,0.0,0.211,0.003
11/03/2022,10:06:37,0.163,0.0,0.214,0.003
11/03/2022,10:07:38,0.168,0.0,0.217,0.003
11/03/2022,10:08:38,0.169,0.0,0.219,0.002
11/03/2022,10:09:38,0.165,0.0,0.222,0.003
11/03/2022,10:10:37,0.163,0.0,0.225,0.003
11/03/2022,10:11:38,0.161,0.0,0.228,0.003
11/03/2022,10:12:38,0.162,0.0,0.23,0.002
11/03/2022,10:13:37,0.165,0.0,0.233,0.003
11/03/2022,10:14:37,0.163,0.0,0.236,0.003
11/03/2022,10:15:46,0.163,0.0,0.239,0.003
11/03/2022,10:16:36,0.168,0.0,0.241,0.002
11/03/2022,10:17:38,0.174,0.0,0.244,0.003
11/03/2022,10:18:46,0.182,0.0,0.247,0.003
11/03/2022,10:19:38,0.190,0.0,0.25,0.003
11/03/2022,10:20:37,0.201,0.0,0.253,0.003
11/03/2022,10:21:37,0.214,0.0,0.257,0.004
11/03/2022,10:22:38,0.233,1.0,0.261,0.004
11/03/2022,10:23:38,0.249,1.0,0.265,0.004